Location: Stonelick Lake State Park
(39.2170°N, 84.0850°W)
Time: 20:19:39
(UTC-04:00)

Amateur Radio Satellites - All Passes

Search period start: 24 June 2017 19:49
Search period end: 25 June 2017 19:49
Location: Stonelick Lake State Park, 39.2170°N, 84.0850°W

Satellite Date Start Highest point End Downlink Frequencies (MHz)
Time Altitude Azimuth
CUBESAT XI-V 24 Jun 19:49:53 19:50:53 11° 298° (WNW) 19:51:54 437.345
SRMSAT 24 Jun 19:52:46 19:53:35 10° 185° (S) 19:54:24 437.500
XW-2A 24 Jun 19:53:02 19:56:08 33° 73° (ENE) 19:59:16 145.665 - 145.685
STRAND 1 24 Jun 19:54:58 19:58:05 16° 92° (E) 20:01:11 437.568
DOVE 4 24 Jun 19:56:51 19:57:14 10° 271° (W) 19:57:38 437.250
ZACube-1 24 Jun 20:08:25 20:10:44 14° 64° (ENE) 20:13:04 437.345
UWE-3 24 Jun 20:09:22 20:13:05 25° 68° (ENE) 20:16:51 435.000/436.395/437.385
AAUSAT CUBESAT 2 24 Jun 20:13:13 20:16:33 24° 70° (ENE) 20:19:54 437.432
NUDT-PHONESAT 24 Jun 20:21:25 20:22:53 12° 268° (W) 20:24:22 437.300
HO-68 24 Jun 20:28:33 20:35:42 69° 256° (WSW) 20:42:55 435.675
PCSat 24 Jun 20:44:12 20:46:18 12° 40° (NE) 20:48:25 145.827
CUTE-I 24 Jun 20:46:06 20:47:57 12° 271° (W) 20:49:48 437.470
AO-85 24 Jun 20:53:15 20:56:24 21° 113° (ESE) 20:59:28 145.980
SEEDS 24 Jun 20:53:37 20:57:41 48° 261° (W) 21:01:46 437.485
AO-73 24 Jun 21:07:39 21:12:03 52° 74° (ENE) 21:16:30 145.935
CUBEBUG 2 24 Jun 21:09:01 21:13:21 45° 262° (W) 21:17:51 437.445
CUTE 1.7 + AOD 2 24 Jun 21:10:05 21:13:18 21° 266° (W) 21:16:32 437.475
XW-2A 24 Jun 21:27:33 21:28:59 12° 268° (W) 21:30:26 145.665 - 145.685
BEESAT 3 24 Jun 21:30:31 21:33:57 29° 114° (ESE) 21:37:27 437.485
EO-88 24 Jun 21:32:11 21:32:17 10° 65° (ENE) 21:32:23 145.990 - 145.960
STRAND 1 24 Jun 21:32:32 21:37:36 57° 288° (WNW) 21:42:37 437.568
Oscar 11 24 Jun 21:36:14 21:40:34 84° 79° (E) 21:44:56 .
RS-15 24 Jun 21:39:28 21:51:12 60° 112° (ESE) 22:03:12 29.354- 29.394
ZACube-1 24 Jun 21:42:00 21:46:28 59° 260° (W) 21:51:01 437.345
NO-84 24 Jun 21:42:49 21:44:58 15° 121° (ESE) 21:47:13 435.350 FM
UWE-3 24 Jun 21:45:19 21:49:21 31° 264° (W) 21:53:29 435.000/436.395/437.385
AAUSAT CUBESAT 2 24 Jun 21:48:31 21:51:54 25° 265° (W) 21:55:19 437.432
DELFI C3 24 Jun 21:49:06 21:52:25 27° 71° (ENE) 21:55:45 145.870
O/OREOS (USA 219) 24 Jun 21:56:03 21:59:47 25° 103° (ESE) 22:03:31 437.305
YUBILEINY 24 Jun 22:14:49 22:22:40 38° 86° (E) 22:30:34 435.215
FO-29 24 Jun 22:25:12 22:31:58 31° 93° (E) 22:38:36 435.910
PCSat 24 Jun 22:25:18 22:30:44 69° 60° (ENE) 22:36:07 145.827
BEESAT 2 24 Jun 22:26:48 22:30:33 42° 116° (ESE) 22:34:22 435.950
UNISAT 6 24 Jun 22:30:48 22:33:28 15° 91° (E) 22:36:07 437.425
AO-85 24 Jun 22:33:00 22:36:37 30° 308° (NW) 22:40:09 145.980
AO-73 24 Jun 22:46:09 22:48:33 14° 269° (W) 22:50:59 145.935
EO-88 24 Jun 23:01:53 23:05:28 51° 260° (W) 23:09:04 145.990 - 145.960
BEESAT 3 24 Jun 23:08:15 23:11:32 24° 311° (NW) 23:14:50 437.485
NO-84 24 Jun 23:18:07 23:22:00 64° 318° (NW) 23:26:13 435.350 FM
M-CUBED/EXP-1 PRIME 24 Jun 23:21:01 23:24:45 83° 108° (ESE) 23:28:46 437.505
TIGRISAT 24 Jun 23:24:02 23:28:35 52° 99° (E) 23:33:02 435.000
DELFI C3 24 Jun 23:24:15 23:27:10 20° 266° (W) 23:30:05 145.870
LO-87 24 Jun 23:27:55 23:31:08 34° 73° (ENE) 23:34:24 145.935 - 145.965
PRISM 24 Jun 23:33:03 23:37:10 73° 102° (ESE) 23:41:16 437.425
O/OREOS (USA 219) 24 Jun 23:35:05 23:39:03 29° 299° (WNW) 23:43:02 437.305
ESTCUBE 1 24 Jun 23:46:41 23:50:51 38° 71° (ENE) 23:55:01 437.505/2401.250
SO-50 24 Jun 23:48:52 23:53:03 36° 52° (NE) 23:57:14 436.795
RS-15 24 Jun 23:52:37 00:04:11 46° 316° (NW) 00:15:57 29.354- 29.394
VELOX 1 24 Jun 23:55:20 23:56:40 11° 62° (ENE) 23:58:00 145.980
BEESAT 2 25 Jun 00:05:39 00:08:30 18° 313° (NW) 00:11:22 435.950
UNISAT 6 25 Jun 00:05:57 00:10:28 50° 287° (WNW) 00:14:52 437.425
FO-29 25 Jun 00:09:35 00:17:10 57° 290° (WNW) 00:24:42 435.910
PCSat 25 Jun 00:10:30 00:13:28 15° 257° (WSW) 00:16:26 145.827
YUBILEINY 25 Jun 00:10:58 00:19:15 45° 285° (WNW) 00:27:40 435.215
SPROUT 25 Jun 00:20:48 00:24:06 22° 68° (ENE) 00:27:25 437.525
DUCHIFAT 1 25 Jun 00:22:54 00:23:14 10° 90° (E) 00:23:35 145.980
NANOSAT C BR1 25 Jun 00:29:04 00:31:26 14° 92° (E) 00:33:46 145.865
AIST 2D 25 Jun 00:30:23 00:33:36 34° 98° (E) 00:36:48 435.315
50 SAT 25 Jun 00:56:18 00:58:44 19° 69° (ENE) 01:01:10 437.505
NO-84 25 Jun 00:57:44 01:00:21 16° 338° (NNW) 01:03:03 435.350 FM
TIGRISAT 25 Jun 01:02:02 01:04:46 16° 296° (WNW) 01:07:30 435.000
LO-87 25 Jun 01:03:07 01:04:42 12° 268° (W) 01:06:17 145.935 - 145.965
POLYITAN 1 25 Jun 01:04:35 01:08:39 41° 99° (E) 01:12:40 437.675
QB50P2 25 Jun 01:15:13 01:19:29 61° 101° (E) 01:23:41 145.880/145.840
ESTCUBE 1 25 Jun 01:24:38 01:27:46 18° 267° (W) 01:30:55 437.505/2401.250
VELOX 1 25 Jun 01:28:10 01:32:31 68° 258° (WSW) 01:36:54 145.980
SO-50 25 Jun 01:29:41 01:33:18 24° 248° (WSW) 01:36:57 436.795
BUGSAT 1 25 Jun 01:33:46 01:36:58 20° 94° (E) 01:40:08 437.445
EO-79 25 Jun 01:40:02 01:44:19 75° 284° (WNW) 01:48:33 145.935-145.965
DX 1 25 Jun 01:50:23 01:54:39 68° 75° (ENE) 01:58:58 434.975-435.025
DUCHIFAT 1 25 Jun 01:55:04 01:59:17 62° 285° (WNW) 02:03:27 145.980
SPROUT 25 Jun 01:56:05 01:59:49 29° 263° (W) 02:03:35 437.525
FO-29 25 Jun 01:58:18 02:00:34 11° 308° (NW) 02:02:51 435.910
NANOSAT C BR1 25 Jun 02:03:17 02:07:21 44° 287° (WNW) 02:11:22 145.865
AIST 2D 25 Jun 02:04:54 02:06:28 13° 293° (WNW) 02:08:02 435.315
UKube-1 25 Jun 02:09:09 02:13:25 74° 75° (ENE) 02:17:43 .
RS-15 25 Jun 02:12:26 02:21:07 21° 347° (NNW) 02:29:46 29.354- 29.394
Oscar 19 25 Jun 02:27:05 02:31:34 30° 96° (E) 02:36:02 437.125/150
50 SAT 25 Jun 02:28:48 02:31:23 20° 264° (W) 02:34:00 437.505
POLYITAN 1 25 Jun 02:41:21 02:44:04 17° 294° (WNW) 02:46:46 437.675
QB50P2 25 Jun 02:53:09 02:54:43 12° 297° (WNW) 02:56:15 145.880/145.840
MOZHAYETS 4 25 Jun 02:57:45 03:00:13 14° 64° (ENE) 03:02:42
ITUPSAT 1 25 Jun 03:08:02 03:12:11 30° 68° (ENE) 03:16:21 437.325
BUGSAT 1 25 Jun 03:08:34 03:12:20 31° 290° (WNW) 03:16:05 437.445
Gurwin Techsat 1B 25 Jun 03:13:59 03:19:13 53° 101° (E) 03:24:23 435.225
BEESAT 25 Jun 03:18:14 03:22:38 38° 70° (ENE) 03:27:04 436.000
AO-7 25 Jun 03:30:20 03:34:10 14° 89° (E) 03:37:58 .
Oscar 19 25 Jun 04:06:22 04:10:49 30° 292° (WNW) 04:15:15 437.125/150
NO-84 25 Jun 04:16:05 04:18:45 16° 21° (NNE) 04:21:24 435.350 FM
RS-15 25 Jun 04:30:12 04:39:50 25° 24° (NNE) 04:49:10 29.354- 29.394
MOZHAYETS 4 25 Jun 04:32:18 04:36:52 58° 260° (W) 04:41:27
KKS-1 25 Jun 04:35:44 04:38:51 19° 66° (ENE) 04:41:58 437.445
ITAMSAT 1 25 Jun 04:41:47 04:46:48 45° 99° (E) 04:51:47 435.822/435.867
ITUPSAT 1 25 Jun 04:45:51 04:49:56 28° 264° (W) 04:54:04 437.325
Gurwin Techsat 1B 25 Jun 04:55:00 04:58:42 20° 297° (WNW) 05:02:25 435.225
BEESAT 25 Jun 04:56:53 05:00:30 21° 266° (W) 05:04:08 436.000
STARS 25 Jun 05:07:34 05:10:28 18° 65° (ENE) 05:13:23 437.465
CUBESAT XI-V 25 Jun 05:11:24 05:16:00 66° 75° (ENE) 05:20:36 437.345
AO-7 25 Jun 05:19:40 05:28:05 78° 107° (ESE) 05:36:28 .
AO-85 25 Jun 05:24:41 05:27:22 16° 47° (NE) 05:30:07 145.980
BEESAT 3 25 Jun 05:48:41 05:51:05 15° 45° (NE) 05:53:27 437.485
NO-84 25 Jun 05:52:50 05:57:10 56° 40° (NE) 06:01:21 435.350 FM
KKS-1 25 Jun 06:10:59 06:15:06 38° 262° (W) 06:19:15 437.445
DOVE 4 25 Jun 06:14:40 06:18:15 20° 93° (E) 06:21:56 437.250
ITAMSAT 1 25 Jun 06:21:58 06:25:56 22° 295° (WNW) 06:29:54 435.822/435.867
STARS 25 Jun 06:42:21 06:46:28 41° 261° (W) 06:50:38 437.465
LilacSat-2 25 Jun 06:42:44 06:44:30 13° 92° (E) 06:46:17 437.200
RS-15 25 Jun 06:43:13 06:55:22 66° 53° (NE) 07:06:50 29.354- 29.394
XW-2B 25 Jun 06:44:17 06:45:56 12° 92° (E) 06:47:34 145.730 - 145.750
BEESAT 2 25 Jun 06:45:43 06:48:49 20° 48° (NE) 06:51:53 435.950
CUBESAT XI-V 25 Jun 06:52:19 06:53:46 11° 270° (W) 06:55:13 437.345
XW-2C 25 Jun 06:58:45 07:01:32 19° 94° (E) 07:04:17 145.795 - 145.815
AO-85 25 Jun 07:03:56 07:08:00 53° 242° (WSW) 07:12:19 145.980
STRAND 1 25 Jun 07:09:36 07:13:27 22° 65° (ENE) 07:17:19 437.568
AO-7 25 Jun 07:13:41 07:19:58 24° 305° (NW) 07:26:15 .
KAITUO 1B 25 Jun 07:14:11 07:17:09 23° 95° (E) 07:20:07 145.475/437.950
CUTE-I 25 Jun 07:20:25 07:25:17 34° 97° (E) 07:30:08 437.470
BEESAT 3 25 Jun 07:25:04 07:29:00 55° 243° (WSW) 07:32:50 437.485
NO-84 25 Jun 07:31:17 07:34:24 19° 237° (WSW) 07:37:25 435.350 FM
NUDT-PHONESAT 25 Jun 07:50:10 07:53:51 68° 101° (E) 07:57:30 437.300
DOVE 4 25 Jun 07:51:22 07:56:03 45° 287° (WNW) 08:00:56 437.250
HO-68 25 Jun 07:58:19 08:04:00 25° 94° (E) 08:09:38 435.675
XW-2F 25 Jun 08:04:01 08:07:44 59° 285° (WNW) 08:11:23 145.980 - 146.000
O/OREOS (USA 219) 25 Jun 08:06:21 08:10:35 40° 64° (ENE) 08:14:47 437.305
XW-2D 25 Jun 08:07:41 08:11:20 48° 286° (WNW) 08:14:56 145.860 - 145.880
LilacSat-2 25 Jun 08:15:25 08:18:56 38° 287° (WNW) 08:22:26 437.200
XW-2B 25 Jun 08:16:46 08:20:18 39° 287° (WNW) 08:23:48 145.730 - 145.750
BEESAT 2 25 Jun 08:22:55 08:26:41 37° 245° (WSW) 08:30:23 435.950
YUBILEINY 25 Jun 08:27:05 08:32:33 17° 62° (ENE) 08:37:57 435.215
Tancredo 1 25 Jun 08:30:07 08:32:48 29° 135° (SE) 08:35:29 437.200
XW-2C 25 Jun 08:32:34 08:35:41 25° 289° (WNW) 08:38:47 145.795 - 145.815
SEEDS 25 Jun 08:38:33 08:42:08 27° 96° (E) 08:45:41 437.485
FO-29 25 Jun 08:41:49 08:42:34 10° 51° (NE) 08:43:19 435.910
ISS 25 Jun 08:43:40 08:46:09 20° 131° (SE) 08:48:38 437.550
STRAND 1 25 Jun 08:47:25 08:52:18 44° 261° (W) 08:57:14 437.568
XW-2A 25 Jun 08:48:11 08:51:25 39° 99° (E) 08:54:36 145.665 - 145.685
KAITUO 1B 25 Jun 08:48:13 08:51:02 21° 291° (WNW) 08:53:50 145.475/437.950
CUTE 1.7 + AOD 2 25 Jun 08:54:36 08:58:48 71° 101° (E) 09:02:58 437.475
RS-15 25 Jun 08:56:40 09:06:59 36° 255° (WSW) 09:16:54 29.354- 29.394
AO-73 25 Jun 08:59:36 09:00:30 11° 89° (E) 09:01:24 145.935
CUTE-I 25 Jun 09:00:36 09:05:12 30° 293° (WNW) 09:09:47 437.470
CUBEBUG 2 25 Jun 09:00:46 09:05:15 42° 97° (E) 09:09:36 437.445
Oscar 11 25 Jun 09:25:39 09:28:23 16° 93° (E) 09:31:05 .
UNISAT 6 25 Jun 09:29:21 09:31:22 13° 62° (ENE) 09:33:23 437.425
AAUSAT CUBESAT 2 25 Jun 09:30:37 09:34:38 51° 99° (E) 09:38:38 437.432
ZACube-1 25 Jun 09:31:48 09:35:41 29° 95° (E) 09:39:28 437.345
UWE-3 25 Jun 09:35:25 09:39:58 59° 100° (E) 09:44:22 435.000/436.395/437.385
HO-68 25 Jun 09:45:04 09:52:05 59° 291° (WNW) 09:59:04 435.675
O/OREOS (USA 219) 25 Jun 09:46:42 09:49:37 17° 260° (W) 09:52:32 437.305
Tancredo 1 25 Jun 10:05:44 10:08:22 26° 331° (NNW) 10:11:01 437.200
M-CUBED/EXP-1 PRIME 25 Jun 10:06:31 10:09:51 86° 71° (ENE) 10:13:08 437.505
SEEDS 25 Jun 10:14:26 10:17:40 22° 291° (WNW) 10:20:53 437.485
ISS 25 Jun 10:19:19 10:22:26 40° 328° (NNW) 10:25:34 437.550
FO-29 25 Jun 10:20:06 10:26:00 63° 71° (ENE) 10:32:43 435.910
PRISM 25 Jun 10:21:04 10:24:54 42° 72° (ENE) 10:28:44 437.425
TIGRISAT 25 Jun 10:21:12 10:25:28 40° 71° (ENE) 10:29:50 435.000
YUBILEINY 25 Jun 10:21:47 10:30:41 87° 83° (E) 10:39:29 435.215
XW-2A 25 Jun 10:23:02 10:23:45 10° 294° (WNW) 10:24:26 145.665 - 145.685
AO-73 25 Jun 10:32:46 10:37:11 63° 285° (WNW) 10:41:27 145.935
EO-88 25 Jun 10:32:58 10:34:51 14° 93° (E) 10:36:43 145.990 - 145.960
CUBEBUG 2 25 Jun 10:38:11 10:41:30 19° 294° (WNW) 10:44:46 437.445
Oscar 11 25 Jun 11:00:38 11:04:40 39° 288° (WNW) 11:08:40 .
DELFI C3 25 Jun 11:00:55 11:04:46 50° 100° (E) 11:08:36 145.870
UNISAT 6 25 Jun 11:02:53 11:07:26 67° 259° (W) 11:12:07 437.425
AIST 2D 25 Jun 11:05:22 11:06:43 12° 67° (ENE) 11:08:05 435.315
AAUSAT CUBESAT 2 25 Jun 11:07:50 11:09:37 13° 295° (WNW) 11:11:25 437.432
ZACube-1 25 Jun 11:08:14 11:11:49 24° 292° (WNW) 11:15:19 437.345
UWE-3 25 Jun 11:13:35 11:15:50 14° 297° (WNW) 11:18:04 435.000/436.395/437.385
NANOSAT C BR1 25 Jun 11:22:37 11:22:40 10° 62° (ENE) 11:22:43 145.865
HO-68 25 Jun 11:36:48 11:38:20 11° 310° (NW) 11:39:51 435.675
POLYITAN 1 25 Jun 11:56:05 11:59:41 27° 69° (ENE) 12:03:20 437.675
ISS 25 Jun 11:58:11 11:59:37 12° 346° (NNW) 12:01:04 437.550
PRISM 25 Jun 11:58:17 12:00:21 14° 267° (W) 12:02:27 437.425
TIGRISAT 25 Jun 11:59:02 12:02:18 19° 267° (W) 12:05:36 435.000
EO-88 25 Jun 12:05:20 12:08:38 33° 288° (WNW) 12:11:55 145.990 - 145.960
QB50P2 25 Jun 12:06:30 12:10:26 38° 72° (ENE) 12:14:26 145.880/145.840
FO-29 25 Jun 12:07:30 12:11:43 19° 272° (W) 12:16:17 435.910
YUBILEINY 25 Jun 12:20:55 12:26:12 18° 282° (WNW) 12:31:30 435.215
BUGSAT 1 25 Jun 12:23:36 12:25:31 13° 64° (ENE) 12:27:26 437.445
LO-87 25 Jun 12:28:42 12:32:16 51° 100° (E) 12:35:49 145.935 - 145.965
EO-79 25 Jun 12:30:48 12:35:01 68° 75° (ENE) 12:39:16 145.935-145.965
AIST 2D 25 Jun 12:36:12 12:39:32 39° 262° (W) 12:42:54 435.315
DELFI C3 25 Jun 12:37:38 12:39:05 12° 295° (WNW) 12:40:31 145.870
DUCHIFAT 1 25 Jun 12:45:08 12:49:21 80° 76° (ENE) 12:53:37 145.980
NANOSAT C BR1 25 Jun 12:53:31 12:57:44 72° 257° (WSW) 13:02:01 145.865
PCSat 25 Jun 13:05:30 13:10:55 80° 116° (ESE) 13:16:22 145.827
ESTCUBE 1 25 Jun 13:16:19 13:20:49 82° 283° (WNW) 13:25:17 437.505/2401.250
VELOX 1 25 Jun 13:19:35 13:23:11 24° 95° (E) 13:26:45 145.980
POLYITAN 1 25 Jun 13:31:57 13:35:25 24° 265° (W) 13:38:54 437.675
ISS 25 Jun 13:36:44 13:37:18 10° 7° (N) 13:37:53 437.550
DX 1 25 Jun 13:41:23 13:43:17 13° 92° (E) 13:45:11 434.975-435.025
SPROUT 25 Jun 13:42:04 13:46:14 47° 99° (E) 13:50:23 437.525
Oscar 19 25 Jun 13:42:43 13:47:30 40° 70° (ENE) 13:52:18 437.125/150
QB50P2 25 Jun 13:43:37 13:46:21 17° 267° (W) 13:49:08 145.880/145.840
50 SAT 25 Jun 13:51:44 13:54:25 21° 96° (E) 13:57:05 437.505
BUGSAT 1 25 Jun 13:56:22 14:00:22 52° 260° (W) 14:04:28 437.445
UKube-1 25 Jun 13:58:52 14:00:54 13° 92° (E) 14:02:55 .
SO-50 25 Jun 14:04:02 14:06:23 14° 109° (ESE) 14:08:42 436.795
AO-7 25 Jun 14:27:53 14:33:42 22° 53° (NE) 14:39:33 .
Gurwin Techsat 1B 25 Jun 14:33:55 14:39:12 76° 75° (ENE) 14:44:31 435.225
PCSat 25 Jun 14:51:30 14:54:57 17° 315° (NW) 14:58:26 145.827
Tancredo 1 25 Jun 14:55:12 14:57:56 29° 30° (NNE) 15:00:38 437.200
VELOX 1 25 Jun 14:55:45 14:59:35 29° 291° (WNW) 15:03:25 145.980
ISS 25 Jun 15:11:55 15:14:43 25° 27° (NNE) 15:17:30 437.550
DX 1 25 Jun 15:15:30 15:19:45 54° 287° (WNW) 15:24:01 434.975-435.025
SPROUT 25 Jun 15:19:17 15:21:43 15° 295° (WNW) 15:24:09 437.525
Oscar 19 25 Jun 15:22:54 15:26:56 23° 266° (W) 15:30:58 437.125/150
50 SAT 25 Jun 15:24:37 15:27:03 19° 291° (WNW) 15:29:29 437.505
UKube-1 25 Jun 15:32:59 15:37:11 51° 287° (WNW) 15:41:22 .
SO-50 25 Jun 15:41:49 15:46:20 59° 304° (NW) 15:50:49 436.795
ITAMSAT 1 25 Jun 15:58:33 16:03:39 62° 73° (ENE) 16:08:49 435.822/435.867
JUGNU 25 Jun 16:05:56 16:07:30 11° 182° (S) 16:09:04 437.505
AO-7 25 Jun 16:17:05 16:25:25 87° 252° (WSW) 16:33:50 .
Gurwin Techsat 1B 25 Jun 16:17:39 16:19:41 12° 270° (W) 16:21:44 435.225
MOZHAYETS 4 25 Jun 16:28:29 16:32:41 34° 97° (E) 16:36:49
Tancredo 1 25 Jun 16:30:51 16:33:27 26° 226° (SW) 16:36:02 437.200
ITUPSAT 1 25 Jun 16:46:23 16:51:13 81° 103° (ESE) 16:55:59 437.325
ISS 25 Jun 16:48:10 16:51:18 41° 224° (SW) 16:54:24 437.550
BEESAT 25 Jun 16:56:28 17:01:17 78° 284° (WNW) 17:06:02 436.000
CUBESAT XI-V 25 Jun 17:10:00 17:13:02 17° 93° (E) 17:16:04 437.345
DOVE 4 25 Jun 17:20:38 17:22:51 14° 64° (ENE) 17:25:06 437.250
ITAMSAT 1 25 Jun 17:40:37 17:43:31 15° 268° (W) 17:46:26 435.822/435.867
SRMSAT 25 Jun 17:51:15 17:52:20 10° 176° (S) 17:53:27 437.500
KAITUO 1B 25 Jun 17:55:35 17:56:06 10° 65° (ENE) 17:56:36 145.475/437.950
KKS-1 25 Jun 18:02:32 18:06:47 41° 99° (E) 18:11:01 437.445
MOZHAYETS 4 25 Jun 18:06:06 18:09:36 22° 293° (WNW) 18:13:05
AO-7 25 Jun 18:14:28 18:19:12 16° 270° (W) 18:23:58 .
ITUPSAT 1 25 Jun 18:26:57 18:28:19 11° 300° (WNW) 18:29:42 437.325
HO-68 25 Jun 18:27:32 18:32:01 18° 56° (NE) 18:36:30 435.675
NUDT-PHONESAT 25 Jun 18:28:28 18:31:35 25° 71° (ENE) 18:34:44 437.300
STARS 25 Jun 18:32:26 18:36:33 36° 98° (E) 18:40:39 437.465
CUTE-I 25 Jun 18:41:02 18:46:08 50° 72° (ENE) 18:51:18 437.470
XW-2F 25 Jun 18:43:18 18:47:00 50° 75° (ENE) 18:50:43 145.980 - 146.000
CUBESAT XI-V 25 Jun 18:46:15 18:50:35 42° 288° (WNW) 18:54:55 437.345
XW-2D 25 Jun 18:47:11 18:50:58 62° 76° (ENE) 18:54:47 145.860 - 145.880
LilacSat-2 25 Jun 18:55:23 18:59:15 83° 74° (ENE) 19:03:07 437.200
XW-2B 25 Jun 18:56:08 18:59:58 79° 77° (ENE) 19:03:49 145.730 - 145.750
DOVE 4 25 Jun 18:56:09 19:00:07 45° 261° (W) 19:04:13 437.250
XW-2C 25 Jun 19:11:40 19:15:29 63° 260° (W) 19:19:18 145.795 - 145.815
XW-2A 25 Jun 19:19:56 19:21:24 12° 67° (ENE) 19:22:52 145.665 - 145.685
KAITUO 1B 25 Jun 19:25:54 19:29:36 54° 260° (W) 19:33:19 145.475/437.950
SEEDS 25 Jun 19:29:44 19:32:33 18° 67° (ENE) 19:35:22 437.485
KKS-1 25 Jun 19:39:58 19:43:00 18° 295° (WNW) 19:46:03 437.445
